TimeCDT,TemperatureF,Dew PointF,Humidity,Sea Level PressureIn,VisibilityMPH,Wind Direction,Wind SpeedMPH,Gust SpeedMPH,PrecipitationIn,Events,Conditions,WindDirDegrees,DateUTC
12:53 AM,81.0,69.1,67,29.84,10.0,South,6.9,-,N/A,,Clear,180,2013-07-08 05:53:00
1:53 AM,81.0,69.1,67,29.83,10.0,South,4.6,-,N/A,,Partly Cloudy,180,2013-07-08 06:53:00
2:53 AM,81.0,66.9,62,29.81,10.0,WNW,8.1,-,N/A,,Overcast,290,2013-07-08 07:53:00
3:53 AM,78.1,66.0,66,29.83,10.0,SW,10.4,-,N/A,,Overcast,220,2013-07-08 08:53:00
4:53 AM,75.9,66.9,74,29.84,10.0,SSW,5.8,-,N/A,,Clear,200,2013-07-08 09:53:00
5:53 AM,75.9,66.0,71,29.86,10.0,South,8.1,-,N/A,,Clear,190,2013-07-08 10:53:00
6:48 AM,75.2,68.0,78,29.90,10.0,SW,6.9,-,N/A,,Mostly Cloudy,230,2013-07-08 11:48:00
6:53 AM,75.0,68.0,79,29.87,10.0,SW,6.9,-,N/A,,Mostly Cloudy,220,2013-07-08 11:53:00
7:53 AM,77.0,68.0,74,29.88,10.0,West,5.8,-,N/A,,Overcast,260,2013-07-08 12:53:00
8:53 AM,77.0,69.1,76,29.89,8.0,West,4.6,-,N/A,,Overcast,270,2013-07-08 13:53:00
9:18 AM,77.0,69.8,78,29.93,7.0,WNW,4.6,-,N/A,,Overcast,290,2013-07-08 14:18:00
9:53 AM,79.0,71.1,77,29.90,7.0,WNW,6.9,-,N/A,,Overcast,290,2013-07-08 14:53:00
10:53 AM,80.1,71.1,74,29.91,7.0,WNW,4.6,-,N/A,,Overcast,290,2013-07-08 15:53:00
11:53 AM,82.0,71.1,69,29.91,8.0,WNW,5.8,-,N/A,,Overcast,290,2013-07-08 16:53:00
12:53 PM,84.0,71.1,65,29.91,8.0,WNW,5.8,-,N/A,,Overcast,300,2013-07-08 17:53:00
1:12 PM,86.0,71.6,62,29.94,9.0,WNW,6.9,-,N/A,,Scattered Clouds,300,2013-07-08 18:12:00
1:53 PM,88.0,71.1,57,29.90,10.0,WNW,8.1,-,N/A,,Clear,290,2013-07-08 18:53:00
2:53 PM,90.0,71.1,54,29.89,10.0,WNW,6.9,-,N/A,,Clear,290,2013-07-08 19:53:00
3:53 PM,91.0,70.0,50,29.89,10.0,WNW,6.9,-,N/A,,Clear,290,2013-07-08 20:53:00
4:53 PM,90.0,71.1,54,29.90,10.0,NNW,9.2,-,N/A,,Clear,330,2013-07-08 21:53:00
5:53 PM,89.1,71.1,55,29.89,10.0,NW,8.1,-,N/A,,Clear,310,2013-07-08 22:53:00
6:53 PM,88.0,69.1,53,29.90,10.0,NW,6.9,-,N/A,,Clear,320,2013-07-08 23:53:00
7:53 PM,86.0,69.1,57,29.90,10.0,NNW,4.6,-,N/A,,Clear,330,2013-07-09 00:53:00
8:53 PM,80.1,71.1,74,29.90,10.0,Calm,Calm,-,N/A,,Clear,0,2013-07-09 01:53:00
9:53 PM,78.1,71.1,79,29.93,10.0,Calm,Calm,-,N/A,,Clear,0,2013-07-09 02:53:00
10:53 PM,75.0,71.1,87,29.93,10.0,Calm,Calm,-,N/A,,Clear,0,2013-07-09 03:53:00
11:53 PM,75.9,71.1,85,29.94,10.0,ESE,3.5,-,N/A,,Clear,110,2013-07-09 04:53:00